Weather in Charyshskoye

Russia / Altai Krai     51°23′50″N   83°33′25″E
temp.,
°C
wind,
m/s
gust,
m/s
humid.,
%
clouds,
%
prec.,
mm/h
press.,
hPa
HPBL,
m
16 june, wed
wed1601:00+8ese22880 0.0 101612
04:00+8ese22895 0.0 101610
07:00+10ese22862 0.0 101662
10:00+17e12620 0.0 1015347
13:00+22ne13410 0.0 10141235
16:00+23nne33470 0.0 10131461
19:00+21nne35710 0.0 1013254
22:00+14e22790 0.0 101411
17 june, thu
thu1701:00+12ese22850 0.0 101412
04:00+11se22890 0.0 101416
07:00+13se228745 0.0 101352
10:00+20se12675 0.0 1012266
13:00+24wnw1152100 0.0 1011674
16:00+24wnw43585 0.0 1010847
19:00+24w12695 0.0 1010767
22:00+17ene11787 0.0 101111
18 june, fri
fri1801:00+14ese22870 0.0 101113
04:00+12se22851 0.0 101116
07:00+14se22817 0.0 101045
10:00+20se11660 0.0 1009235
13:00+24wsw12540 0.0 10081041
16:00+25wnw235456 0.0 10071401
19:00+24ssw11681 0.0 1006911
22:00+17ese22801 0.1 100511
19 june, sat
sat1901:00+14se32870 0.1 100421
04:00+13se32841 0.0 100421
07:00+15se33811 0.0 100358
10:00+22se226588 0.0 1001192
13:00+28ssw364881 0.0 9991786
16:00+27wsw376111 0.0 9981231
19:00+15nne4589100 2.3 99974
22:00+15e5994100 4.9 1000166
20 june, sun
sun2001:00+14se338992 5.0 99933
04:00+12nw2399100 0.0 1002135
07:00+10nw2498100 0.1 1006376
10:00+10nw2496100 0.0 1009390
13:00+11w698677 0.1 1011554
16:00+15sw796826 0.0 1010767
19:00+15sw3771100 0.0 1011705
22:00+12ese2274100 0.0 101114